Regional Weather Roundup
Issued by NWS

Home | Current Version | Previous Version | Graphics & Text | Print | Product List | Glossary On
Versions: 1 2 3 4 5 6 7 8 9 10 11 12 13 14 15 16 17 18 19 20 21 22 23 24 25 26 27 28 29 30 31 32 33 34 35 36 37 38 39 40 41 42 43 44 45 46 47 48 49 50
000
ASUS43 KDMX 311407
RWRIA

WEATHER ROUNDUP FOR IOWA
NATIONAL WEATHER SERVICE DES MOINES IA
900 AM CDT SUN AUG 31 2014

NOTE: "FAIR" INDICATES FEW OR NO CLOUDS BELOW 12,000 FEET WITH NO
SIGNIFICANT WEATHER AND/OR OBSTRUCTIONS TO VISIBILITY.

* - THESE STATIONS ARE NOT NWS STATIONS...THUS NOT UNDER NWS
QUALITY CONTROL.  THEY ALSO DO NOT REPORT WEATHER SUCH
AS PRECIPITATION OR FOG.

IAZ001>003-012>014-020>022-031>034-043>046-311500-
   NORTHWEST IOWA

CITY           SKY/WX    TMP DP  RH WIND       PRES   REMARKS
CARROLL *      MOSUNNY   70  68  94 S7        29.82S
CHEROKEE *     MOSUNNY   72  68  88 S13G21    29.75F
DENISON *      SUNNY     73  68  83 S9G18     29.78F
LE MARS *      SUNNY     72  66  83 S16G26    29.72F
ORANGE CITY *  SUNNY     72  64  78 S10       29.74S
SHELDON *      SUNNY     70  68  94 S14       29.73F
SIOUX CITY     CLOUDY    70  65  84 SE10      29.72S
SPENCER        MOSUNNY   69  64  84 S15       29.76F
STORM LAKE *   SUNNY     70  70 100 S13       29.79F
$$

IAZ055>058-069>071-079>083-090>094-311500-
   SOUTHWEST IOWA

CITY           SKY/WX    TMP DP  RH WIND       PRES   REMARKS
ATLANTIC *     SUNNY     73  68  83 S13       29.82S
AUDUBON *      SUNNY     75  70  83 S12       29.84S
CLARINDA *     SUNNY     73  70  88 S9        29.86S
COUNCIL BLFS * SUNNY     75  70  83 S15G22    29.80S
CRESTON *      SUNNY     73  70  88 S10       29.88S
HARLAN  *      SUNNY     72  70  94 S12       29.84F
LAMONI         SUNNY     73  68  84 S8        29.89S
RED OAK *      SUNNY     75  70  83 S12       29.84R
SHENANDOAH *   SUNNY     75  70  83 S9G16     29.85R
$$

IAZ047>049-059>061-072>074-084-311500-
   CENTRAL IOWA

CITY           SKY/WX    TMP DP  RH WIND       PRES   REMARKS
AMES           SUNNY     72  68  87 S10       29.86S
ANKENY *       SUNNY     73  68  83 S8        29.86S
CHARITON *     SUNNY     73  70  88 S10       29.90R
DES MOINES     MOSUNNY   74  68  81 S13       29.86S
GRINNELL*      SUNNY     72  68  88 S8        29.90F
KNOXVILLE *    SUNNY     72  68  88 SE8       29.88R
MARSHALLTOWN   SUNNY     71  68  90 SE10      29.88S
PELLA *        SUNNY     73  70  88 S8        29.90S
PERRY *          N/A     72  68  88 S10G17    29.85S
$$

IAZ004>006-015-016-023>025-035-036-311500-
   NORTH CENTRAL IOWA

CITY           SKY/WX    TMP DP  RH WIND       PRES   REMARKS
ALGONA *       MOSUNNY   70  66  88 S14G22    29.82R
CLARION *      MOSUNNY   73  68  83 S18G24    29.83F
ESTHERVILLE    MOSUNNY   67  65  93 S17       29.77F
FORT DODGE *   MOSUNNY   72  66  83 S12       29.83S
MASON CITY     MOSUNNY   70  67  90 SE14      29.85F
FOREST CITY *  MOSUNNY   68  68 100 SE8       29.85R
IOWA FALLS *     N/A     70  66  88 S10       29.89R
$$

IAZ007>011-017>019-026>030-037>042-050>054-066-311500-
   NORTHEAST IOWA

CITY           SKY/WX    TMP DP  RH WIND       PRES   REMARKS
CEDAR RAPIDS   MOSUNNY   71  69  93 S7        29.91S
CHARLES CITY * CLOUDY    68  66  94 S8        29.89S FOG
CLINTON *      SUNNY     72  70  94 S6        29.95S
DECORAH *      PTSUNNY   66  66 100 VRB3      29.89F
DUBUQUE        MOSUNNY   70  67  90 S9        29.94S
MONTICELLO *   SUNNY     72  70  94 S6        29.92S
OELWEIN *      MOSUNNY   70  68  94 S10       29.91S
WATERLOO       SUNNY     68  66  93 S8        29.87F
$$

IAZ064-065-067-068-078-311500-
   EAST CENTRAL IOWA

CITY           SKY/WX    TMP DP  RH WIND       PRES   REMARKS
DAVENPORT      SUNNY     74  69  85 S6        29.93S
IOWA CITY      SUNNY     71  68  90 SE5       29.92F
MT. PLEASANT * SUNNY     75  70  83 S6        29.93S
MUSCATINE *    MOSUNNY   70  70 100 CALM      29.93S
QUAD CITIES    SUNNY     75  69  81 S7        29.92S
$$

IAZ062-063-075>077-085>089-095>099-311500-
   SOUTHEAST IOWA

CITY           SKY/WX    TMP DP  RH WIND       PRES   REMARKS
BURLINGTON     SUNNY     73  71  93 S6        29.93S
FAIRFIELD *    SUNNY     75  70  83 S7        29.92S
FORT MADISON * FOG       73  73 100 S6        29.94S VSB 1
KEOKUK *       FOG       72  72 100 CALM      29.92F VSB 1/4
OSKALOOSA *      N/A     72  70  94 S7        29.90F
CENTERVILLE *  SUNNY     73  73 100 S7        29.92S
OTTUMWA        SUNNY     72  69  90 S7        29.90F
WASHINGTON *   SUNNY     73  72  94 S8        29.92S
$$

ABBREVIATIONS USED IN REMARKS
   TC - TEMPERATURES IN CELSIUS
  WCI - WIND CHILL INDEX
   HX - HEAT INDEX
  VSB - VISIBILITY
$$




USA.gov is the U.S. government's official web portal to all federal, state and local government web resources and services.